Weather in Fedorovskoye

Russia / Tver Oblast     56°43′50″N   36°57′30″E
temp.,
°C
wind,
m/s
gust,
m/s
humid.,
%
clouds,
%
prec.,
mm/h
press.,
hPa
HPBL,
m
16 june, wed
wed1600:00+16w238757 0.0 101061
03:00+14nw258510 0.0 1011108
06:00+15nw3787100 0.0 1012255
09:00+20nnw456538 0.0 10131073
12:00+23nnw55402 0.0 10142090
15:00+23nnw45325 0.0 10152195
18:00+22nnw35414 0.0 10162036
21:00+15nw2468100 0.0 101756
17 june, thu
thu1700:00+12nnw38695 0.0 1020160
03:00+10nnw23712 0.0 102244
06:00+13nnw24665 0.0 1023128
09:00+19nnw134371 0.0 1024707
12:00+22nw24360 0.0 10241979
15:00+24wnw353515 0.0 10242260
18:00+23wnw24454 0.0 10242034
21:00+17wsw22682 0.0 102411
18 june, fri
fri1800:00+14w22795 0.0 102622
03:00+13w118614 0.0 102712
06:00+16w11764 0.0 102768
09:00+22sw225247 0.0 1027542
12:00+26wsw23395 0.0 10271643
15:00+27wsw34385 0.0 10261887
18:00+26wsw344921 0.0 10251381
21:00+19sw257712 0.0 102587
19 june, sat
sat1900:00+17sw37875 0.0 1026130
03:00+15sw310865 0.0 1027209
06:00+18wsw39805 0.0 1027251
09:00+23wsw46575 0.0 1027686
12:00+27wsw45435 0.0 10261643
15:00+28wsw45414 0.0 10251893
18:00+27wsw34515 0.0 10241575
21:00+21sw25805 0.0 102578
20 june, sun
sun2000:00+18sw25906 0.0 102590
03:00+16wsw2691100 0.0 1026113
06:00+18sw3781100 0.0 1026191
09:00+24sw34583 0.0 1025561
12:00+28sw33450 0.0 10241559
15:00+29sw34375 0.0 10221991
18:00+27wsw344628 0.0 10221163
21:00+21wsw227364 0.0 102238